Overview Statistics Trail Chart Weather Telemetry Raw packets
 

This is the latest recevied weather packets stored in our database for station/object K7OWW-2. If no packets are shown the sender has not sent any weather packets the latest 10 day(s).

<< 40 41 42 43 44 45 46 >>
Time Temp. Humidity Pressure Rain* Wind** Luminosity Snow
1787968139 19.44° C 49% 1012.9 hPa 0 mm - - -
1787967845 19.44° C 49% 1013 hPa 0 mm - - -
1787967539 20° C 48% 1012.9 hPa 0 mm - - -
1787966939 20.56° C 47% 1012.8 hPa 0 mm - - -
1787966339 21.11° C 45% 1012.6 hPa 0 mm - - -
1787965739 21.67° C 40% 1012.6 hPa 0 mm - - -
1787965139 22.22° C 42% 1012.5 hPa 0 mm - - -
1787964539 21.67° C 43% 1012.5 hPa 0 mm - - -
1787964242 22.22° C 41% 1012.4 hPa 0 mm - - -
1787963939 22.22° C 40% 1012.3 hPa 0 mm - - -
1787963339 22.78° C 36% 1012.2 hPa 0 mm - - -
1787962739 23.33° C 35% 1012.1 hPa 0 mm - - -
1787962442 23.33° C 34% 1012.1 hPa 0 mm - - -
1787962139 23.89° C 34% 1012.1 hPa 0 mm - - -
1787961539 23.89° C 34% 1012 hPa 0 mm - - -
1787960939 23.89° C 33% 1011.9 hPa 0 mm - - -
1787960642 23.89° C 33% 1011.9 hPa 0 mm - - -
1787960339 23.89° C 33% 1011.9 hPa 0 mm - - -
1787959739 23.33° C 32% 1011.9 hPa 0 mm - - -
1787959139 23.89° C 33% 1011.9 hPa 0 mm - - -
1787958851 23.89° C 33% 1011.8 hPa 0 mm - - -
1787958539 24.44° C 33% 1011.8 hPa 0 mm - - -
1787957939 25° C 31% 1011.7 hPa 0 mm - - -
1787957339 25.56° C 30% 1011.8 hPa 0 mm - - -
1787957042 25.56° C 29% 1011.9 hPa 0 mm - - -

* Rain latest hour (hover to see other rain measurements)
** Current wind speed in m/s (hover to see current wind gust speed)